Weather History for KHXD - September, 2013

Change the Weather History Date:

Thursday, September 26, 2013

  Actual Average Record
Temperature  
Mean Temperature 74 °F -  
Max Temperature 82 °F 82 °F 93 °F (1961)
Min Temperature 66 °F 65 °F 53 °F (1967)
Cooling Degree Days 9    
Growing Degree Days 24 (Base 50)    
Moisture  
Dew Point 67 °F    
Average Humidity 89    
Maximum Humidity 100    
Minimum Humidity 54    
Precipitation  
Precipitation 0.00 in - - ()
Sea Level Pressure  
Sea Level Pressure 29.87 in    
Wind  
Wind Speed 9 mph (North)    
Max Wind Speed 14 mph    
Max Gust Speed 21 mph    
Visibility 9 miles    
Events Rain    
Averages and records for this station are not official NWS values.
T = Trace of Precipitation, MM = Missing Value Source: NWS Daily Summary

Daily Weather History Graph

Daily Weather History Graph

Search for Another Location

Airport or City:

Trip Planner

Search our weather history database for the weather conditions in past years. The results will help you decide how hot, cold, wet, or windy it might be!

Date:

Astronomy

Sep. 26, 2013 Rise Set
Actual Time 7:13 AM EDT 7:13 PM EDT
Civil Twilight 6:49 AM EDT 7:38 PM EDT
Nautical Twilight 6:20 AM EDT 8:06 PM EDT
Astronomical Twilight 5:52 AM EDT 8:35 PM EDT
Moon No Moon Rise 1:47 PM EDT (9/26)
Length of Visible Light 12h 49m
Length of Day
12h 00m
Waning Gibbous, 55% of the Moon is Illuminated
Sep 26
Waning Gibbous
Sep 26
Last Quarter
Oct 4
New
Oct 11
First Quarter
Oct 18
Full

Hourly Weather History & Observations

Time (EDT) Temp. Heat Index Dew Point Humidity Pressure Visibility Wind Dir Wind Speed Gust Speed Precip Events Conditions
12:15 AM 73.4 °F - 69.8 °F 88% 29.83 in 10.0 mi North 6.9 mph - 0.00 in   Overcast
12:35 AM 73.4 °F - 69.8 °F 88% 29.82 in 10.0 mi NNW 6.9 mph - 0.00 in   Overcast
12:55 AM 73.4 °F - 69.8 °F 88% 29.82 in 4.0 mi NNW 4.6 mph - 0.00 in   Drizzle
1:15 AM 71.6 °F - 69.8 °F 94% 29.81 in 10.0 mi North 9.2 mph - 0.00 in   Mostly Cloudy
1:35 AM 71.6 °F - 69.8 °F 94% 29.81 in 10.0 mi North 8.1 mph - 0.00 in   Partly Cloudy
1:55 AM 69.8 °F - 69.8 °F 100% 29.81 in 10.0 mi North 10.4 mph - 0.00 in   Partly Cloudy
2:15 AM 69.8 °F - 69.8 °F 100% 29.81 in 10.0 mi North 10.4 mph - 0.00 in   Mostly Cloudy
2:35 AM 69.8 °F - 68.0 °F 94% 29.81 in 10.0 mi NNW 10.4 mph - 0.00 in   Mostly Cloudy
2:55 AM 69.8 °F - 68.0 °F 94% 29.81 in 10.0 mi North 11.5 mph 16.1 mph 0.00 in   Mostly Cloudy
3:15 AM 69.8 °F - 66.2 °F 88% 29.81 in 10.0 mi North 10.4 mph - 0.00 in   Scattered Clouds
3:35 AM 69.8 °F - 66.2 °F 88% 29.80 in 10.0 mi North 12.7 mph - 0.00 in   Mostly Cloudy
3:55 AM 69.8 °F - 68.0 °F 94% 29.80 in 10.0 mi North 11.5 mph - 0.00 in   Scattered Clouds
4:15 AM 69.8 °F - 68.0 °F 94% 29.80 in 10.0 mi North 8.1 mph - 0.00 in   Mostly Cloudy
4:35 AM 69.8 °F - 68.0 °F 94% 29.80 in 10.0 mi North 11.5 mph - 0.00 in   Overcast
4:55 AM 69.8 °F - 68.0 °F 94% 29.80 in 10.0 mi North 12.7 mph 17.3 mph 0.00 in   Overcast
5:15 AM 69.8 °F - 68.0 °F 94% 29.80 in 10.0 mi North 13.8 mph 17.3 mph 0.00 in   Overcast
5:35 AM 69.8 °F - 68.0 °F 94% 29.81 in 10.0 mi North 11.5 mph - 0.00 in   Overcast
5:55 AM 69.8 °F - 68.0 °F 94% 29.81 in 10.0 mi North 12.7 mph - 0.00 in   Overcast
6:15 AM 69.8 °F - 68.0 °F 94% 29.82 in 10.0 mi North 12.7 mph - 0.00 in   Overcast
6:35 AM 69.8 °F - 68.0 °F 94% 29.82 in 10.0 mi North 13.8 mph - 0.00 in   Overcast
6:50 AM 68.0 °F - 66.2 °F 94% 29.82 in 10.0 mi North 9.2 mph - N/A   Overcast
7:55 AM 66.2 °F - 66.2 °F 100% 29.85 in 2.0 mi North 11.5 mph - N/A Rain Rain
8:50 AM 66.2 °F - 64.4 °F 94% 29.87 in 2.0 mi North 9.2 mph - N/A Rain Rain
9:55 AM 66.2 °F - 64.4 °F 94% 29.90 in 1.5 mi North 11.5 mph - N/A Rain Rain
10:47 AM 66.2 °F - 64.4 °F 94% 29.90 in 4.0 mi North 10.4 mph - N/A   Overcast
11:46 AM 82.4 °F 83.9 °F 64.4 °F 54% 29.90 in 10.0 mi North 11.5 mph - N/A   Overcast
12:48 PM 71.6 °F - 64.4 °F 78% 29.89 in 10.0 mi North 11.5 mph - N/A   Overcast
1:50 PM 69.8 °F - 64.4 °F 83% 29.89 in 5.0 mi NNW 10.4 mph - N/A Rain Light Rain
4:50 PM 69.8 °F - 66.2 °F 88% 29.90 in 10.0 mi North 9.2 mph - N/A   Overcast
5:50 PM 69.8 °F - 66.2 °F 88% 29.91 in 5.0 mi North 9.2 mph 20.7 mph N/A   Overcast
6:50 PM 69.8 °F - 66.2 °F 88% 29.93 in 10.0 mi North 9.2 mph - N/A   Overcast
7:50 PM 69.8 °F - 64.4 °F 83% 29.93 in 10.0 mi North 9.2 mph - N/A   Mostly Cloudy
9:15 PM 71.6 °F - 64.4 °F 78% 29.95 in 10.0 mi North 8.1 mph - 0.00 in   Mostly Cloudy
9:35 PM 69.8 °F - 64.4 °F 83% 29.95 in 10.0 mi North 4.6 mph - 0.00 in   Partly Cloudy
9:55 PM 69.8 °F - 64.4 °F 83% 29.96 in 10.0 mi North 4.6 mph - 0.00 in   Clear
10:15 PM 69.8 °F - 64.4 °F 83% 29.96 in 10.0 mi North 4.6 mph - 0.00 in   Clear
10:35 PM 69.8 °F - 64.4 °F 83% 29.96 in 10.0 mi North 4.6 mph - 0.00 in   Clear
10:55 PM 69.8 °F - 64.4 °F 83% 29.96 in 10.0 mi North 4.6 mph - 0.00 in   Clear
11:15 PM 69.8 °F - 64.4 °F 83% 29.96 in 10.0 mi North 4.6 mph - 0.00 in   Clear
11:35 PM 69.8 °F - 64.4 °F 83% 29.97 in 10.0 mi North 4.6 mph - 0.00 in   Partly Cloudy
11:55 PM 69.8 °F - 64.4 °F 83% 29.96 in 10.0 mi North 6.9 mph - 0.00 in   Scattered Clouds